Location: Unspecified
(38.6830°S, 0.0000°E)
Time: 11:53:15
(UTC+00:00)

Hubble Space Telescope - Visible Passes

Search period start: 21 May 2019 00:00
Search period end: 31 May 2019 00:00
Orbit: 536 x 540 km, 28.5° (Epoch: 21 May)

Date Brightness Start Highest point End Pass type
(mag) Time Alt. Az. Time Alt. Az. Time Alt. Az.
21 May 2.7 05:12:59 18° NNW 05:14:00 20° N 05:17:02 10° NE visible
22 May 2.7 05:03:07 19° N 05:03:23 19° N 05:06:21 10° NE visible
23 May 2.9 04:53:15 17° N 04:53:15 17° N 04:55:35 10° NE visible
24 May 3.2 04:43:23 14° N 04:43:23 14° N 04:44:46 10° NNE visible
25 May 3.6 04:33:32 11° NNE 04:33:32 11° NNE 04:33:50 10° NNE visible
